Weather History for KGON - February, 2013

Change the Weather History Date:

Wednesday, February 20, 2013

  Actual Average Record
Temperature  
Mean Temperature 34 °F -  
Max Temperature 41 °F 42 °F 55 °F (1984)
Min Temperature 26 °F 24 °F 1 °F (1958)
Degree Days  
Heating Degree Days 32    
Moisture  
Dew Point 20 °F    
Average Humidity 60    
Maximum Humidity 100    
Minimum Humidity 38    
Precipitation  
Precipitation 0.00 in - - ()
Sea Level Pressure  
Sea Level Pressure 29.72 in    
Wind  
Wind Speed 11 mph (WNW)    
Max Wind Speed 21 mph    
Max Gust Speed 33 mph    
Visibility 10 miles    
Events      
Averages and records for this station are not official NWS values.
T = Trace of Precipitation, MM = Missing Value Source: NWS Daily Summary

Daily Weather History Graph

Daily Weather History Graph

Search for Another Location

Airport or City:

Trip Planner

Search our weather history database for the weather conditions in past years. The results will help you decide how hot, cold, wet, or windy it might be!

Date:

Astronomy

Feb. 20, 2013 Rise Set
Actual Time 6:35 AM EST 5:28 PM EST
Civil Twilight 6:07 AM EST 5:56 PM EST
Nautical Twilight 5:35 AM EST 6:28 PM EST
Astronomical Twilight 5:03 AM EST 7:00 PM EST
Moon 12:45 PM EST (2/20) 2:55 AM EST (2/20)
Length of Visible Light 11h 48m
Length of Day
10h 52m
Waxing Gibbous, 76% of the Moon is Illuminated
Feb 20
Waxing Gibbous
Feb 25
Full
Mar 4
Last Quarter
Mar 11
New
Mar 19
First Quarter

Hourly Weather History & Observations

Time (EST) Temp. Windchill Dew Point Humidity Pressure Visibility Wind Dir Wind Speed Gust Speed Precip Events Conditions
12:10 AM 41.0 °F 38.0 °F 41.0 °F 100% 29.61 in 8.0 mi WSW 4.6 mph - N/A   Mostly Cloudy
12:17 AM 41.0 °F 37.1 °F 41.0 °F 100% 29.61 in 8.0 mi WSW 5.8 mph - N/A   Mostly Cloudy
12:56 AM 39.9 °F 33.9 °F 39.0 °F 97% 29.62 in 10.0 mi West 9.2 mph - N/A   Mostly Cloudy
1:24 AM 39.2 °F 33.6 °F 37.4 °F 93% 29.63 in 10.0 mi WSW 8.1 mph - N/A   Mostly Cloudy
1:56 AM 37.9 °F 32.1 °F 36.0 °F 93% 29.63 in 10.0 mi WSW 8.1 mph - N/A   Scattered Clouds
2:56 AM 37.0 °F 28.5 °F 30.9 °F 79% 29.62 in 10.0 mi West 13.8 mph - N/A   Clear
3:52 AM 35.6 °F 28.0 °F - N/A% 29.63 in 10.0 mi WNW 10.4 mph - N/A   Mostly Cloudy
3:56 AM 37.0 °F 29.3 °F - N/A% 29.64 in 10.0 mi WNW 11.5 mph - N/A   Overcast
4:22 AM 35.6 °F 28.0 °F 30.2 °F 81% 29.65 in 10.0 mi NW 10.4 mph - N/A   Overcast
4:56 AM 36.0 °F 30.3 °F 30.9 °F 82% 29.65 in 10.0 mi NW 6.9 mph - N/A   Overcast
5:56 AM 35.6 °F 28.6 °F 28.4 °F 75% 29.67 in 9.0 mi WNW 9.2 mph - N/A   Overcast
6:56 AM 34.0 °F 23.0 °F 25.0 °F 70% 29.70 in 10.0 mi WNW 18.4 mph 25.3 mph N/A   Overcast
7:05 AM 33.8 °F 22.5 °F 24.8 °F 70% 29.71 in 10.0 mi NW 19.6 mph 26.5 mph N/A   Overcast
7:56 AM 33.1 °F 23.0 °F 19.0 °F 56% 29.73 in 10.0 mi WNW 15.0 mph 24.2 mph N/A   Overcast
8:56 AM 33.1 °F 21.9 °F 16.0 °F 50% 29.75 in 10.0 mi WNW 18.4 mph 26.5 mph N/A   Mostly Cloudy
9:56 AM 35.1 °F 24.5 °F 14.0 °F 42% 29.74 in 10.0 mi West 18.4 mph 26.5 mph N/A   Partly Cloudy
10:56 AM 37.0 °F 27.4 °F 14.0 °F 39% 29.74 in 10.0 mi West 17.3 mph 24.2 mph N/A   Mostly Cloudy
11:56 AM 35.1 °F 26.4 °F 12.9 °F 40% 29.73 in 10.0 mi WNW 12.7 mph 24.2 mph N/A   Overcast
12:56 PM 36.0 °F 26.0 °F 14.0 °F 41% 29.72 in 10.0 mi WNW 17.3 mph 24.2 mph N/A   Mostly Cloudy
1:56 PM 33.8 °F 22.8 °F 12.2 °F 41% 29.72 in 10.0 mi West 18.4 mph 26.5 mph N/A   Mostly Cloudy
2:56 PM 33.1 °F 21.2 °F 12.0 °F 42% 29.73 in 10.0 mi West 20.7 mph 27.6 mph N/A   Overcast
3:56 PM 33.8 °F 22.5 °F 10.4 °F 38% 29.74 in 10.0 mi WNW 19.6 mph 27.6 mph N/A   Overcast
4:56 PM 32.0 °F 20.8 °F 10.9 °F 42% 29.76 in 10.0 mi West 17.3 mph 26.5 mph N/A   Overcast
5:56 PM 30.9 °F 20.7 °F 10.9 °F 43% 29.78 in 10.0 mi WNW 13.8 mph 23.0 mph N/A   Overcast
6:56 PM 30.0 °F 17.9 °F 10.0 °F 43% 29.81 in 10.0 mi WNW 18.4 mph 33.4 mph N/A   Scattered Clouds
7:56 PM 28.0 °F 18.1 °F 9.0 °F 45% 29.83 in 10.0 mi WNW 11.5 mph - N/A   Clear
8:56 PM 28.0 °F 16.5 °F 7.0 °F 41% 29.84 in 10.0 mi West 15.0 mph 23.0 mph N/A   Clear
9:56 PM 27.0 °F 17.3 °F 9.0 °F 47% 29.86 in 10.0 mi West 10.4 mph - N/A   Clear
10:56 PM 26.1 °F 14.0 °F 10.0 °F 51% 29.86 in 10.0 mi WNW 15.0 mph - N/A   Clear
11:56 PM 26.1 °F 16.2 °F 10.0 °F 51% 29.88 in 10.0 mi West 10.4 mph - N/A   Clear